Back to catalog

HYSIS

AliveScienceSSO
NORAD 43719·PAYLOAD·🇮🇳 India

Launched Nov 29, 2018 from Satish Dhawan Space Centre

Loading…

Next Passes (next 24 hours)

TLE

FreshSource: Space-Track

Epoch: Sep 14, 2026, 14:29 UTC

1 43719U 18096A   26257.60410177  .00000422  00000-0  64703-4 0  9998
2 43719  97.9761 323.6111 0001138 109.4600 250.6734 14.78650320420633

Track HYSIS in real time with AllMySat

Download on the App Store